South Lake Tahoe, CA

3:59 PM PST on February 19, 2017 (GMT -0800)
Lake Tahoe

Weather History for KTVL - January, 2013

Change the Weather History Date:

Wednesday, January 16, 2013

  Actual Average Record
Temperature  
Mean Temperature 29 °F 30 °F  
Max Temperature 49 °F 43 °F 60 °F (2011)
Min Temperature 8 °F 16 °F -5 °F (1979)
Degree Days  
Heating Degree Days 36 35  
Month to date heating degree days 693 567  
Since 1 July heating degree days 3555 3750  
Cooling Degree Days 0 0  
Month to date cooling degree days 0 0  
Year to date cooling degree days 0 0  
Moisture  
Dew Point 11 °F    
Average Humidity 53    
Maximum Humidity 84    
Minimum Humidity 21    
Precipitation  
Precipitation 0.00 in - 1.85 in (1970)
Month to date precipitation 0.36  
Year to date precipitation 0.36  
Sea Level Pressure  
Sea Level Pressure 30.58 in    
Wind  
Wind Speed 1 mph (SSW)    
Max Wind Speed 8 mph    
Max Gust Speed 12 mph    
Visibility 9 miles    
Events      
T = Trace of Precipitation, MM = Missing Value Source: NWS Daily Summary

Daily Weather History Graph

Daily Weather History Graph

Search for Another Location

Airport or City:

Trip Planner

Search our weather history database for the weather conditions in past years. The results will help you decide how hot, cold, wet, or windy it might be!

Date:

Astronomy

Jan. 16, 2013 Rise Set
Actual Time 7:16 AM PST 5:03 PM PST
Civil Twilight 6:47 AM PST 5:32 PM PST
Nautical Twilight 6:14 AM PST 6:05 PM PST
Astronomical Twilight 5:42 AM PST 6:37 PM PST
Moon 9:59 AM PST (1/16) 10:56 PM PST (1/16)
Length of Visible Light 10h 45m
Length of Day
9h 47m
Waxing Crescent, 29% of the Moon is Illuminated
Jan 16
Waxing Crescent
Jan 18
First Quarter
Jan 26
Full
Feb 3
Last Quarter
Feb 9
New

Hourly Weather History & Observations

Time (PST) Temp. Windchill Dew Point Humidity Pressure Visibility Wind Dir Wind Speed Gust Speed Precip Events Conditions
12:53 AM 19.0 °F - 12.9 °F 77% 30.57 in 10.0 mi Calm Calm - N/A   Clear
1:53 AM 16.0 °F - 10.0 °F 77% 30.58 in 10.0 mi Calm Calm - N/A   Clear
2:53 AM 16.0 °F 10.4 °F 10.0 °F 77% 30.59 in 8.0 mi SSW 3.5 mph - N/A   Clear
3:53 AM 15.1 °F - 10.0 °F 80% 30.59 in 9.0 mi Calm Calm - N/A   Clear
4:53 AM 12.9 °F - 8.1 °F 81% 30.62 in 9.0 mi Calm Calm - N/A   Clear
5:53 AM 14.0 °F - 9.0 °F 80% 30.63 in 10.0 mi Calm Calm - N/A   Clear
6:53 AM 10.9 °F - 6.1 °F 81% 30.66 in 10.0 mi Calm Calm - N/A   Clear
7:54 AM 9.0 °F - 3.0 °F 77% 30.70 in 10.0 mi Calm Calm - N/A   Unknown
8:29 AM 12.2 °F 4.3 °F 6.8 °F 79% 30.55 in 3.0 mi South 4.6 mph - N/A   Haze
8:39 AM 14.0 °F 6.5 °F 8.6 °F 79% 30.55 in 8.0 mi South 4.6 mph - N/A   Clear
8:53 AM 16.0 °F 8.8 °F 9.0 °F 74% 30.66 in 10.0 mi SSW 4.6 mph - N/A   Clear
9:53 AM 26.1 °F 21.9 °F 14.0 °F 60% 30.61 in 10.0 mi South 3.5 mph - N/A   Clear
10:53 AM 37.0 °F - 16.0 °F 42% 30.55 in 10.0 mi Calm Calm - N/A   Clear
11:53 AM 44.1 °F 40.8 °F 12.9 °F 28% 30.50 in 10.0 mi NNE 5.8 mph - N/A   Clear
12:53 PM 46.9 °F - 10.0 °F 22% 30.48 in 10.0 mi NNE 5.8 mph - N/A   Clear
1:53 PM 48.0 °F - 10.0 °F 22% 30.47 in 10.0 mi Variable 4.6 mph - N/A   Clear
2:53 PM 46.9 °F - 10.9 °F 23% 30.46 in 10.0 mi Calm Calm - N/A   Clear
3:53 PM 41.0 °F - 17.1 °F 38% 30.51 in 10.0 mi Calm Calm - N/A   Clear
4:53 PM 34.0 °F - 19.9 °F 56% 30.54 in 10.0 mi Calm Calm - N/A   Clear
5:53 PM 27.0 °F - 16.0 °F 63% 30.58 in 10.0 mi Calm Calm - N/A   Clear
6:53 PM 24.1 °F - 12.9 °F 62% 30.63 in 10.0 mi Calm Calm - N/A   Clear
7:53 PM 21.9 °F 17.2 °F 12.9 °F 68% 30.66 in 10.0 mi South 3.5 mph - N/A   Clear
8:53 PM 19.0 °F - 10.0 °F 68% 30.63 in 10.0 mi Calm Calm - N/A   Clear
9:53 PM 18.0 °F - 9.0 °F 68% 30.58 in 10.0 mi Calm Calm - N/A   Clear
10:53 PM 16.0 °F 10.4 °F 8.1 °F 71% 30.54 in 9.0 mi SSW 3.5 mph - N/A   Clear
11:53 PM 14.0 °F 8.2 °F 7.0 °F 74% 30.51 in 7.0 mi South 3.5 mph - N/A   Clear